Location: Ketsch
(49.3675°N, 8.5237°E)
Time: 13:31:21
(UTC+01:00)

ISS - Visible Passes

Search period start: 15 March 2026 00:00
Search period end: 25 March 2026 00:00
Orbit: 417 x 426 km, 51.6° (Epoch: 14 March)

Date Brightness Start Highest point End Pass type
(mag) Time Alt. Az. Time Alt. Az. Time Alt. Az.
15 Mar -3.8 19:48:59 10° WSW 19:52:23 77° SSE 19:54:11 26° ENE visible
15 Mar -1.1 21:26:01 10° W 21:27:12 20° WNW 21:27:12 20° WNW visible
16 Mar -3.5 19:02:17 10° SW 19:05:37 57° SSE 19:08:58 10° ENE visible
16 Mar -3.4 20:39:08 10° W 20:42:27 59° NNW 20:42:27 59° NNW visible
17 Mar -3.5 19:52:15 10° W 19:55:39 68° NNW 19:57:37 23° ENE visible
17 Mar -1.1 21:29:21 10° WNW 21:30:38 21° WNW 21:30:38 21° WNW visible
18 Mar -3.6 19:05:22 10° WSW 19:08:47 81° NNW 19:12:11 10° ENE visible
18 Mar -3.3 20:42:28 10° WNW 20:45:44 56° N 20:45:44 56° N visible
19 Mar -3.3 19:55:32 10° W 19:58:54 56° N 20:00:47 23° ENE visible
19 Mar -1.2 21:32:31 10° WNW 21:33:47 21° WNW 21:33:47 21° WNW visible
20 Mar -3.3 19:08:35 10° W 19:11:57 59° N 19:15:20 10° ENE visible
20 Mar -3.5 20:45:37 10° WNW 20:48:48 68° NNW 20:48:48 68° NNW visible
21 Mar -3.5 19:58:42 10° WNW 20:02:06 62° N 20:03:47 26° E visible
21 Mar -1.1 21:35:37 10° WNW 21:36:47 19° W 21:36:47 19° W visible
22 Mar -3.3 19:11:44 10° WNW 19:15:07 57° N 19:18:28 10° E visible
22 Mar -3.5 20:48:40 10° WNW 20:51:46 64° WSW 20:51:46 64° WSW visible
23 Mar -3.8 20:01:43 10° WNW 20:05:07 90° W 20:06:44 29° ESE visible
23 Mar -0.9 21:38:54 10° W 21:39:44 15° W 21:39:44 15° W visible
24 Mar -3.6 19:14:44 10° WNW 19:18:09 73° NNE 19:21:33 10° E visible
24 Mar -2.5 20:51:44 10° W 20:54:43 33° SW 20:54:43 33° SW visible
